[[{"header":{"parameterUnit":"m.s-1","parameterCategory":2,"la1":30.2991,"la2":30.254,"lo1":-89.0895,"lo2":-89.0444,"dy":0.0017,"dx":0.0017,"nx":28,"ny":28,"refTime":"2023-06-21T21:00:00:Z","depth":"0","parameterNumber":2,"parameterNumberName":"U-component_of_CURRENTS"},"data":[0,0,0,0,0,0,0,0,0,0,0,0,0,0,0,0,0,0,0,0,0,0,0,0,0,0,0,0,0,0,0,0,0,0,0,0,0,0,0,0,0,0,0,0,0,0,0,0,0,0,0,0,0,0,0,0,0,0,0.3725,0.3725,0,0.3813,0.3815,0.3816,0.3799,0.3797,0.3795,0.3793,0.3873,0.3877,0.3881,0,0,0,0,0,0,0,0,0,0,0,0,0,0.3658,0.3659,0.3724,0.3725,0.3726,0.3813,0.3815,0.3816,0.38,0.3797,0.3795,0.3793,0.3872,0.3876,0.3881,0,0,0,0,0,0,0,0,0,0,0,0,0,0.3715,0.3659,0.3724,0.3725,0.3725,0.3813,0.3815,0.3817,0.38,0.3797,0.3794,0.3791,0.387,0.3876,0.3882,0.3978,0,0,0.39,0.3903,0,0,0,0,0,0,0,0,0.3711,0.3718,0.3724,0.3725,0.3726,0.3788,0.382,0.3869,0.3801,0.3777,0.3793,0.379,0.3843,0.3851,0.3881,0.3982,0.3986,0.3901,0.3904,0.3907,0.3908,0,0,0,0,0,0,0,0.3707,0.3714,0.3764,0.3725,0.3726,0.376,0.3765,0.383,0.3829,0.3778,0.3776,0.378,0.3844,0.3875,0.3883,0.3987,0.39,0.3906,0.3909,0.3912,0.4255,0.426,0,0,0,0,0,0,0.3685,0.371,0.3761,0.3766,0.3706,0.3763,0.3768,0.3775,0.3828,0.3832,0.3783,0.3779,0.3867,0.3876,0.3885,0.4082,0.3907,0.3912,0.3916,0.4249,0.4256,0.4262,0,0,0,0,0,0,0.3683,0.3689,0.3757,0.3736,0.3747,0.3766,0.3775,0.3778,0.3815,0.3831,0.3835,0.3815,0.3865,0.3877,0.3982,0.4081,0.3915,0.392,0.4243,0.4251,0.4259,0.4425,0,0,0,0,0,0,0.3681,0.3688,0.371,0.3735,0.3747,0.3847,0.3777,0.3782,0.3819,0.3816,0.3861,0.3864,0.3863,0.3973,0.3988,0.4086,0.3925,0.4236,0.4246,0.4256,0.4412,0.4438,0.4459,0,0,0,0,0,0.3679,0.3722,0.3711,0.3718,0.3768,0.385,0.3864,0.3868,0.3824,0.3882,0.3905,0.3863,0.4049,0.3983,0.3999,0.4101,0.4231,0.4243,0.4255,0.4402,0.4433,0.4459,0,0,0,0,0,0,0.371,0.3725,0.3713,0.3758,0.3814,0.3846,0.3901,0.3887,0.3952,0.3949,0.3935,0.3946,0.408,0.4076,0.4003,0.4234,0.4134,0.415,0.424,0.4269,0.4293,0.4275,0.393,0,0,0,0,0,0.3725,0.3758,0.3786,0.3831,0.3862,0.3883,0.3918,0.3926,0.397,0.3993,0.4017,0.4064,0.415,0.419,0.426,0.4386,0.4378,0.4464,0.4488,0.4507,0.4508,0.461,0.4642,0.4303,0.4303,0.4302,0,0,0.3741,0.3761,0.3775,0.3841,0.388,0.3968,0.39,0.3978,0.4052,0.3997,0.4117,0.4154,0.4204,0.435,0.4408,0.4353,0.4604,0.4523,0.4539,0.4529,0.4626,0.4659,0.4687,0.4311,0.431,0.4308,0,0,0.3819,0.3823,0.3889,0.3949,0.4022,0.4049,0.4074,0.4131,0.4163,0.428,0.427,0.4363,0.4471,0.4539,0.4581,0.4781,0.4729,0.4806,0.4909,0.501,0.5037,0.5061,0.5096,0.5122,0.4813,0.4813,0.4813,0,0.3833,0.3922,0.393,0.4028,0.4084,0.4089,0.4191,0.4251,0.4333,0.4369,0.4341,0.452,0.4569,0.4736,0.4814,0.4835,0.485,0.479,0.5037,0.5061,0.5082,0.5112,0.5138,0.4823,0.4821,0.482,0.482,0,0.3973,0.4051,0.4109,0.4219,0.429,0.4385,0.445,0.4525,0.4541,0.4573,0.472,0.479,0.4876,0.4937,0.4941,0.5135,0.5082,0.5055,0.4952,0.5126,0.5147,0.5171,0.4836,0.4833,0.483,0.4828,0,0,0.3971,0.416,0.4181,0.4259,0.4394,0.4459,0.4601,0.4713,0.4768,0.4866,0.495,0.513,0.5111,0.5161,0.5188,0.5286,0.5473,0.5244,0.5245,0.5254,0.5656,0.5417,0.5418,0.5486,0.5491,0.5496,0.5607,0,0.4076,0.4281,0.4343,0.4527,0.4638,0.4686,0.4798,0.4893,0.4952,0.5039,0.5117,0.5213,0.5214,0.5253,0.5369,0.5429,0.5545,0.5442,0.5506,0.5507,0.5254,0.5442,0.5097,0.515,0.563,0.5634,0.5637,0,0.4196,0.4318,0.4517,0.4669,0.4713,0.4805,0.4938,0.5036,0.5153,0.5187,0.5284,0.5314,0.5477,0.5444,0.5649,0.5577,0.5651,0.5694,0.5698,0.5426,0.5313,0.5058,0.5174,0.5069,0.5673,0.567,0.5668,0,0.4219,0.4426,0.4579,0.4645,0.4825,0.489,0.496,0.5076,0.5133,0.5266,0.5299,0.5461,0.5524,0.5661,0.5749,0.5718,0.5939,0.5896,0.5759,0.574,0.5429,0.5372,0.5422,0.609,0.609,0.609,0.6089,0,0.432,0.4443,0.4591,0.4685,0.4801,0.4907,0.5005,0.5087,0.5184,0.5241,0.5355,0.5423,0.5588,0.5709,0.5798,0.5826,0.5986,0.5802,0.5775,0.5475,0.5424,0.5298,0.5266,0.6094,0.6093,0.6092,0.6091,0,0.437,0.4479,0.4639,0.4799,0.483,0.4907,0.4995,0.505,0.5145,0.5226,0.5267,0.5423,0.5523,0.5656,0.5854,0.584,0.5736,0.5916,0.5511,0.5431,0.5092,0.5081,0.4903,0.4786,0.5737,0.5732,0.5727,0,0.4437,0.4532,0.4679,0.4721,0.4794,0.4885,0.4925,0.5022,0.5064,0.5207,0.524,0.5365,0.5401,0.5548,0.5529,0.5584,0.5558,0.534,0.522,0.5045,0.5019,0.4881,0.4789,0.4895,0.4884,0.4875,0.4868,0,0.4536,0.4567,0.4674,0.4737,0.4785,0.4836,0.4898,0.4912,0.5011,0.5058,0.5112,0.5151,0.5185,0.5031,0.5076,0.5091,0.5005,0.5154,0.5118,0.4478,0.4192,0.407,0.483,0.479,0.4798,0.4804,0.4808,0.4811,0.456,0.4604,0.4679,0.4707,0.4761,0.4753,0.4688,0.4752,0.4759,0.4699,0.4887,0.4777,0.4685,0.4608,0.4611,0.4322,0.443,0.4187,0.4228,0.4136,0.3887,0.4428,0.4257,0.4262,0.4266,0.4269,0.4272,0,0.4516,0.4547,0.4619,0.4619,0.458,0.4634,0.4618,0.4473,0.4368,0.4404,0.4359,0.4142,0.3955,0.3884,0.3619,0.3471,0.3369,0.34,0.3187,0.3182,0.3785,0.3609,0.3111,0.3111,0.3111,0.3111,0.3111,0.3111,0.449,0.4486,0.4484,0.4382,0.4365,0.4184,0.4092,0.3947,0.389,0.3611,0.3414,0.3378,0.3357,0.3188,0.296,0.2904,0.2806,0.2543,0.2738,0.3212,0.3291,0.3366,0.3198,0.2622,0.2621,0.1927,0.1922,0.1918]},{"header":{"parameterUnit":"m.s-1","parameterCategory":2,"la1":30.2991,"la2":30.254,"lo1":-89.0895,"lo2":-89.0444,"dy":0.0017,"dx":0.0017,"nx":28,"ny":28,"refTime":"2023-06-21T21:00:00:Z","depth":"0","parameterNumber":3,"parameterNumberName":"V-component_of_CURRENTS"},"data":[0,0,0,0,0,0,0,0,0,0,0,0,0,0,0,0,0,0,0,0,0,0,0,0,0,0,0,0,0,0,0,0,0,0,0,0,0,0,0,0,0,0,0,0,0,0,0,0,0,0,0,0,0,0,0,0,0,0,-0.0055,-0.0055,0,-0.0105,-0.0106,-0.0107,-0.0147,-0.0147,-0.0147,-0.0146,-0.0299,-0.0303,-0.0307,0,0,0,0,0,0,0,0,0,0,0,0,0,-0.0054,-0.0054,-0.0055,-0.0055,-0.0055,-0.0105,-0.0106,-0.0108,-0.0147,-0.0147,-0.0147,-0.0146,-0.0298,-0.0303,-0.0308,0,0,0,0,0,0,0,0,0,0,0,0,0,-0.0079,-0.0054,-0.0055,-0.0077,-0.0079,-0.0105,-0.0106,-0.0108,-0.0147,-0.0147,-0.0146,-0.0146,-0.0296,-0.0302,-0.0308,-0.0349,0,0,-0.0327,-0.033,0,0,0,0,0,0,0,0,-0.0078,-0.008,-0.0074,-0.0076,-0.0078,-0.0115,-0.0162,-0.0192,-0.0147,-0.0127,-0.0146,-0.0146,-0.0244,-0.0254,-0.027,-0.0356,-0.0363,-0.0328,-0.0332,-0.0334,-0.0336,0,0,0,0,0,0,0,-0.0076,-0.0078,-0.008,-0.0074,-0.0076,-0.0105,-0.0109,-0.0168,-0.0191,-0.0128,-0.013,-0.0127,-0.0246,-0.0264,-0.0274,-0.0365,-0.0328,-0.0333,-0.0337,-0.0339,-0.0508,-0.0509,0,0,0,0,0,0,-0.0056,-0.0076,-0.0079,-0.0081,-0.0072,-0.0105,-0.0109,-0.0108,-0.0188,-0.0198,-0.0127,-0.0129,-0.0253,-0.0267,-0.028,-0.0304,-0.0334,-0.034,-0.0344,-0.0508,-0.0509,-0.0509,0,0,0,0,0,0,-0.0056,-0.0056,-0.0076,-0.0076,-0.008,-0.0104,-0.0103,-0.0108,-0.0123,-0.0186,-0.0199,-0.0135,-0.0254,-0.0271,-0.0346,-0.0312,-0.0343,-0.0349,-0.0507,-0.0508,-0.0509,-0.0373,0,0,0,0,0,0,-0.0056,-0.0056,-0.0055,-0.0074,-0.0079,-0.0092,-0.0103,-0.0109,-0.0119,-0.0122,-0.0197,-0.021,-0.0255,-0.0336,-0.0352,-0.0321,-0.0353,-0.0506,-0.0507,-0.0509,-0.0376,-0.0369,-0.0363,0,0,0,0,0,-0.0056,-0.0044,-0.0055,-0.0055,-0.0074,-0.0092,-0.0098,-0.0118,-0.0119,-0.013,-0.0188,-0.0208,-0.0356,-0.0343,-0.0361,-0.033,-0.0505,-0.0507,-0.0509,-0.0379,-0.037,-0.0363,0,0,0,0,0,0,-0.0037,-0.0047,-0.0059,-0.005,-0.0072,-0.0096,-0.0099,-0.0114,-0.0165,-0.017,-0.023,-0.025,-0.0302,-0.0351,-0.0335,-0.0389,-0.0429,-0.0434,-0.0324,-0.0317,-0.031,-0.022,-0.0359,0,0,0,0,0,-0.0033,-0.0029,-0.005,-0.0043,-0.0051,-0.0077,-0.0086,-0.0101,-0.0141,-0.0162,-0.0216,-0.0275,-0.0324,-0.0348,-0.0415,-0.0447,-0.0431,-0.044,-0.0433,-0.0427,-0.037,-0.0334,-0.0316,-0.0515,-0.0515,-0.0515,0,0,-0.0019,-0.0026,-0.0022,-0.004,-0.0055,-0.0062,-0.0083,-0.0092,-0.0091,-0.0174,-0.0204,-0.0267,-0.0336,-0.0372,-0.0396,-0.0403,-0.0368,-0.0429,-0.0422,-0.0368,-0.0334,-0.0313,-0.0295,-0.0516,-0.0516,-0.0516,0,0,0.0012,-0.0,0.001,-0.0008,-0.0028,-0.0047,-0.0046,-0.008,-0.0089,-0.0139,-0.0182,-0.0207,-0.0321,-0.0319,-0.0341,-0.0339,-0.0346,-0.0385,-0.0255,-0.0223,-0.0203,-0.0186,-0.0144,-0.0124,-0.0364,-0.0364,-0.0364,0,0.0026,0.0037,0.0009,0.0009,0.0014,-0.0035,-0.002,-0.0043,-0.0098,-0.0074,-0.0142,-0.0203,-0.0273,-0.0233,-0.0238,-0.0309,-0.0301,-0.0271,-0.0204,-0.0187,-0.0172,-0.0132,-0.0112,-0.0357,-0.0358,-0.0359,-0.0359,0,0.0063,0.0064,0.0071,0.0057,0.0052,0.0054,0.0029,0.0023,-0.0004,-0.0009,-0.0001,-0.0085,-0.0091,-0.0134,-0.019,-0.0106,-0.014,-0.0206,-0.0201,-0.0141,-0.0107,-0.0087,-0.0348,-0.0351,-0.0353,-0.0354,0,0,0.0121,0.0102,0.0104,0.0126,0.0084,0.0103,0.0106,0.0135,0.0199,0.0125,0.0216,0.0132,0.0128,0.0105,0.005,0.0077,0.017,-0.0007,-0.0009,0.008,0.0257,0.02,0.0214,0.0111,0.0115,0.0118,0.0239,0,0.016,0.0191,0.0166,0.0208,0.0229,0.0206,0.0238,0.0259,0.0255,0.0314,0.0294,0.0316,0.0207,0.0221,0.0237,0.0176,0.0226,0.0145,0.015,0.0152,0.013,0.0237,0.0226,0.033,0.0258,0.0261,0.0263,0,0.0207,0.0227,0.0277,0.0332,0.0346,0.037,0.0467,0.0485,0.0546,0.0552,0.0592,0.0554,0.0605,0.0479,0.0493,0.044,0.0385,0.0334,0.0335,0.0264,0.0131,0.0253,0.0367,0.0257,0.0292,0.029,0.0288,0,0.0291,0.0317,0.0377,0.0384,0.0421,0.0482,0.0519,0.058,0.0646,0.0728,0.0784,0.0807,0.0834,0.0777,0.0648,0.0583,0.0651,0.0541,0.046,0.0454,0.0444,0.0431,0.0499,0.0596,0.0595,0.0595,0.0595,0,0.0348,0.0398,0.0435,0.0469,0.0596,0.0594,0.0735,0.0776,0.0863,0.0978,0.0934,0.1027,0.0905,0.0898,0.0766,0.0689,0.075,0.0545,0.0504,0.0483,0.0472,0.0368,0.0269,0.0599,0.0598,0.0598,0.0597,0,0.0417,0.0423,0.0512,0.059,0.0631,0.0733,0.0853,0.0952,0.1017,0.1166,0.1202,0.1228,0.1218,0.1087,0.1008,0.0854,0.0699,0.0721,0.0707,0.0662,0.0445,0.0352,0.0395,0.0341,0.0678,0.0678,0.0677,0,0.0456,0.0507,0.0616,0.0686,0.0726,0.0858,0.0948,0.1028,0.1125,0.1292,0.1378,0.1422,0.1466,0.1334,0.109,0.0912,0.0746,0.075,0.0621,0.0498,0.0365,0.0301,0.0247,0.0663,0.0663,0.0662,0.0662,0,0.0554,0.0591,0.0663,0.0791,0.0899,0.1017,0.1149,0.1246,0.1357,0.1497,0.1669,0.173,0.1612,0.144,0.1159,0.0991,0.0654,0.0735,0.063,0.0408,0.0328,0.0232,0.0515,0.0659,0.0659,0.066,0.066,0.066,0.0644,0.0709,0.0795,0.0921,0.103,0.1151,0.1261,0.1401,0.1583,0.1792,0.1866,0.2012,0.174,0.1368,0.1119,0.0662,0.0655,0.0507,0.0425,0.039,0.0284,0.0563,0.0622,0.0622,0.0622,0.0622,0.0622,0,0.0745,0.0803,0.0919,0.1051,0.1158,0.1199,0.1375,0.1492,0.1708,0.193,0.2105,0.2103,0.1743,0.1337,0.0716,0.0413,0.0296,0.0251,0.0176,0.0147,0.0437,0.0378,0.036,0.036,0.036,0.0361,0.0361,0.0361,0.081,0.0912,0.0952,0.1134,0.122,0.1361,0.1457,0.1647,0.1835,0.2094,0.2231,0.2312,0.2038,0.1018,0.0329,0.0146,-0.0053,-0.0097,-0.0178,0.0008,0.0026,0.0043,-0.0031,-0.0134,-0.0135,-0.0422,-0.0425,-0.0428]}],[{"header":{"parameterUnit":"m.s-1","parameterCategory":2,"la1":30.2991,"la2":30.254,"lo1":-89.0895,"lo2":-89.0444,"dy":0.0017,"dx":0.0017,"nx":28,"ny":28,"refTime":"2023-06-21T21:00:00:Z","depth":"2","parameterNumber":2,"parameterNumberName":"U-component_of_CURRENTS"},"data":[0,0,0,0,0,0,0,0,0,0,0,0,0,0,0,0,0,0,0,0,0,0,0,0,0,0,0,0,0,0,0,0,0,0,0,0,0,0,0,0,0,0,0,0,0,0,0,0,0,0,0,0,0,0,0,0,0,0,0.2799,0.28,0,0.2839,0.2839,0.2839,0.2828,0.2827,0.2827,0.2827,0.2804,0.2803,0.2803,0,0,0,0,0,0,0,0,0,0,0,0,0,0.2752,0.2752,0.2799,0.28,0.2801,0.2839,0.2839,0.2839,0.2828,0.2827,0.2827,0.2826,0.2804,0.2803,0.2803,0,0,0,0,0,0,0,0,0,0,0,0,0,0.2775,0.2752,0.2799,0.2803,0.2805,0.2839,0.2839,0.2839,0.2828,0.2827,0.2827,0.2826,0.2804,0.2803,0.2803,0.2812,0,0,0.2802,0.2802,0,0,0,0,0,0,0,0,0.2774,0.2776,0.2802,0.2803,0.2805,0.2832,0.2815,0.2829,0.2828,0.2814,0.2827,0.2826,0.2811,0.281,0.2813,0.2811,0.281,0.2802,0.2802,0.2801,0.2801,0,0,0,0,0,0,0,0.2772,0.2775,0.281,0.2803,0.2805,0.2817,0.2819,0.2817,0.281,0.2815,0.2815,0.2828,0.281,0.2813,0.2812,0.2809,0.2802,0.2801,0.2801,0.2801,0.3007,0.3013,0,0,0,0,0,0,0.2776,0.2773,0.2809,0.2812,0.2793,0.2819,0.2821,0.282,0.2811,0.2812,0.2829,0.2827,0.2814,0.2812,0.2811,0.3022,0.2801,0.2801,0.2801,0.3002,0.3009,0.3015,0,0,0,0,0,0,0.2774,0.2778,0.2807,0.2798,0.2803,0.282,0.282,0.2821,0.2851,0.2823,0.2821,0.2861,0.2814,0.2812,0.2868,0.3013,0.2801,0.28,0.2995,0.3004,0.3012,0.3315,0,0,0,0,0,0,0.2772,0.2777,0.2788,0.2798,0.2804,0.2872,0.2821,0.2822,0.2861,0.286,0.285,0.2846,0.2813,0.2869,0.2867,0.3009,0.28,0.2988,0.2999,0.3009,0.3298,0.3333,0.3363,0,0,0,0,0,0.277,0.2792,0.2788,0.2793,0.2814,0.2876,0.2882,0.2887,0.2863,0.2905,0.2905,0.2847,0.2937,0.2873,0.2869,0.3015,0.2983,0.2996,0.3008,0.3283,0.3326,0.3362,0,0,0,0,0,0,0.2773,0.2794,0.2789,0.2813,0.2862,0.2877,0.2908,0.2911,0.2941,0.2938,0.2898,0.2897,0.3017,0.296,0.289,0.3107,0.296,0.2972,0.317,0.321,0.3242,0.325,0.28,0,0,0,0,0,0.278,0.281,0.2834,0.2865,0.2883,0.2899,0.2925,0.2939,0.2962,0.2974,0.2985,0.3001,0.3064,0.3087,0.3115,0.3207,0.3131,0.3305,0.3337,0.3365,0.3373,0.3394,0.3429,0.3057,0.3057,0.3057,0,0,0.2784,0.281,0.282,0.2871,0.2893,0.2964,0.2913,0.2973,0.3071,0.2966,0.3098,0.3112,0.3114,0.3249,0.3297,0.3219,0.3435,0.3382,0.3406,0.3397,0.3411,0.3447,0.3479,0.3066,0.3064,0.3063,0,0,0.2823,0.2835,0.287,0.2928,0.2991,0.3026,0.3055,0.3107,0.3167,0.3278,0.3267,0.3364,0.3416,0.3488,0.3517,0.3736,0.361,0.3755,0.3926,0.395,0.398,0.4005,0.3961,0.398,0.3768,0.3768,0.3769,0,0.283,0.2881,0.2899,0.2968,0.3045,0.3065,0.3158,0.323,0.3314,0.3366,0.3356,0.35,0.3546,0.3705,0.384,0.3818,0.3764,0.3781,0.3992,0.4015,0.4036,0.3984,0.4001,0.3785,0.3783,0.3781,0.378,0,0.291,0.2958,0.2996,0.31,0.3195,0.3278,0.3389,0.3498,0.3567,0.36,0.3764,0.3829,0.3887,0.3985,0.4006,0.4206,0.4099,0.4033,0.3888,0.4092,0.4024,0.4036,0.3808,0.3802,0.3797,0.3793,0,0,0.2903,0.3021,0.3035,0.3104,0.3279,0.3353,0.3565,0.3716,0.3783,0.3913,0.4019,0.4243,0.4205,0.4242,0.4281,0.4382,0.4561,0.4313,0.4306,0.4261,0.4562,0.4326,0.4313,0.4523,0.4527,0.4531,0.4456,0,0.2963,0.3086,0.3171,0.334,0.3423,0.3566,0.3748,0.3895,0.3979,0.408,0.4189,0.4283,0.4316,0.4373,0.4482,0.4544,0.4606,0.4584,0.4376,0.4369,0.413,0.4326,0.4024,0.3918,0.4466,0.4468,0.4469,0,0.3026,0.311,0.3269,0.3454,0.3504,0.3634,0.3882,0.4029,0.4178,0.4247,0.4325,0.4333,0.4549,0.4525,0.4667,0.464,0.4639,0.4666,0.4659,0.4335,0.4157,0.3804,0.3917,0.4487,0.4485,0.4484,0.4483,0,0.3051,0.3181,0.3316,0.339,0.3611,0.3745,0.3877,0.4057,0.4137,0.4317,0.4341,0.4484,0.4552,0.4628,0.4695,0.4693,0.478,0.4736,0.4488,0.4466,0.4113,0.4053,0.4799,0.4799,0.4799,0.4799,0.4799,0,0.3133,0.3225,0.3306,0.3419,0.3562,0.3727,0.3879,0.4041,0.4157,0.4208,0.4369,0.4399,0.4592,0.463,0.4695,0.4612,0.4738,0.4544,0.4457,0.4208,0.4161,0.4564,0.4538,0.4796,0.4797,0.4797,0.4798,0,0.3173,0.324,0.3386,0.3565,0.3597,0.3716,0.3859,0.3941,0.4067,0.4145,0.4215,0.4346,0.4406,0.4494,0.4603,0.4542,0.4549,0.4465,0.4135,0.4012,0.4211,0.4203,0.419,0.4181,0.4174,0.4168,0.4163,0,0.3191,0.3263,0.3441,0.3499,0.3584,0.3699,0.3802,0.3938,0.3967,0.4073,0.4097,0.4162,0.4146,0.4161,0.4153,0.4125,0.4296,0.3794,0.376,0.4246,0.4163,0.4165,0.4165,0.3415,0.3404,0.3396,0.3389,0,0.3222,0.3298,0.3415,0.3494,0.36,0.365,0.3738,0.3714,0.3854,0.3873,0.3827,0.3803,0.3803,0.3618,0.3587,0.3552,0.3794,0.3604,0.422,0.3605,0.3506,0.3427,0.3456,0.3311,0.3318,0.3324,0.3328,0.3331,0.322,0.324,0.3349,0.3413,0.3513,0.3491,0.3452,0.3485,0.3429,0.3346,0.3462,0.3327,0.3347,0.3087,0.2994,0.2953,0.3213,0.3118,0.315,0.319,0.3103,0.2997,0.2686,0.269,0.2693,0.2696,0.2699,0,0.3145,0.3134,0.3211,0.326,0.3259,0.336,0.3318,0.3181,0.3017,0.3048,0.2941,0.2623,0.2454,0.2492,0.23,0.2283,0.2333,0.2194,0.2267,0.2344,0.2412,0.2292,0.1656,0.1653,0.165,0.1647,0,0,0.3084,0.3077,0.3063,0.293,0.2953,0.2823,0.2738,0.26,0.2512,0.2301,0.2215,0.2318,0.2393,0.1993,0.1943,0.1766,0.2046,0.1688,0.2527,0.2689,0.2754,0.2943,0.2842,0,0,0,0,0]},{"header":{"parameterUnit":"m.s-1","parameterCategory":2,"la1":30.2991,"la2":30.254,"lo1":-89.0895,"lo2":-89.0444,"dy":0.0017,"dx":0.0017,"nx":28,"ny":28,"refTime":"2023-06-21T21:00:00:Z","depth":"2","parameterNumber":3,"parameterNumberName":"V-component_of_CURRENTS"},"data":[0,0,0,0,0,0,0,0,0,0,0,0,0,0,0,0,0,0,0,0,0,0,0,0,0,0,0,0,0,0,0,0,0,0,0,0,0,0,0,0,0,0,0,0,0,0,0,0,0,0,0,0,0,0,0,0,0,0,0.0106,0.0106,0,0.0101,0.0101,0.0101,0.0081,0.008,0.008,0.008,0.0038,0.0037,0.0036,0,0,0,0,0,0,0,0,0,0,0,0,0,0.0076,0.0077,0.0106,0.0106,0.0107,0.0101,0.0101,0.01,0.0081,0.008,0.008,0.008,0.0038,0.0037,0.0036,0,0,0,0,0,0,0,0,0,0,0,0,0,0.0079,0.0077,0.0106,0.0098,0.0098,0.0101,0.0101,0.01,0.0081,0.008,0.008,0.008,0.0039,0.0037,0.0036,0.0033,0,0,0.0032,0.0031,0,0,0,0,0,0,0,0,0.0079,0.008,0.0099,0.0099,0.0098,0.0094,0.0075,0.0077,0.0081,0.0084,0.008,0.008,0.0055,0.0053,0.0049,0.0031,0.0029,0.0031,0.0031,0.003,0.003,0,0,0,0,0,0,0,0.0079,0.008,0.0101,0.0099,0.0099,0.0087,0.0087,0.0075,0.0068,0.0084,0.0083,0.0087,0.0054,0.005,0.0047,0.0028,0.0031,0.003,0.0029,0.0029,0.0043,0.0044,0,0,0,0,0,0,0.0087,0.008,0.0101,0.0101,0.0091,0.0088,0.0088,0.0093,0.0069,0.0067,0.0088,0.0086,0.0053,0.0049,0.0046,0.0086,0.003,0.0029,0.0028,0.0042,0.0043,0.0045,0,0,0,0,0,0,0.0086,0.0089,0.0102,0.0093,0.0094,0.009,0.0095,0.0093,0.009,0.0073,0.0069,0.0087,0.0052,0.0048,0.0036,0.0082,0.0028,0.0027,0.004,0.0042,0.0044,0.0137,0,0,0,0,0,0,0.0086,0.0089,0.0091,0.0093,0.0095,0.0102,0.0096,0.0093,0.0094,0.0093,0.0071,0.0067,0.0052,0.0038,0.0034,0.0079,0.0026,0.0039,0.0041,0.0043,0.0133,0.0142,0.015,0,0,0,0,0,0.0084,0.0098,0.0092,0.0094,0.01,0.0103,0.0102,0.0096,0.0095,0.0092,0.008,0.0067,0.0051,0.0037,0.0033,0.0079,0.0038,0.004,0.0043,0.0129,0.014,0.015,0,0,0,0,0,0,0.0088,0.0098,0.0091,0.0106,0.0101,0.0101,0.0106,0.0099,0.0088,0.0089,0.0069,0.0064,0.0079,0.0056,0.0042,0.0089,0.0048,0.005,0.0115,0.0125,0.0134,0.0208,0.0024,0,0,0,0,0,0.009,0.0103,0.0101,0.0113,0.0114,0.0109,0.011,0.0104,0.0098,0.0093,0.0079,0.0074,0.0088,0.0086,0.0081,0.0094,0.0064,0.0124,0.0133,0.014,0.0198,0.0161,0.0172,0.0054,0.0054,0.0054,0,0,0.0096,0.0104,0.0111,0.0115,0.0115,0.0144,0.0108,0.0114,0.0152,0.009,0.0124,0.0098,0.0096,0.0121,0.0127,0.0107,0.0149,0.0144,0.0151,0.0205,0.0165,0.0177,0.0187,0.0056,0.0055,0.0055,0,0,0.0135,0.0121,0.0153,0.0154,0.0159,0.016,0.0164,0.0159,0.0167,0.0171,0.0167,0.0182,0.0153,0.0199,0.0213,0.0269,0.0196,0.024,0.0348,0.031,0.032,0.0329,0.0268,0.027,0.0245,0.0245,0.0246,0,0.0141,0.0189,0.0159,0.0194,0.0226,0.0178,0.0235,0.0233,0.0224,0.0263,0.019,0.0233,0.0218,0.0323,0.034,0.03,0.0232,0.0306,0.0323,0.0331,0.0338,0.0274,0.0276,0.025,0.025,0.0249,0.0249,0,0.0208,0.0249,0.0268,0.031,0.0328,0.036,0.0366,0.0385,0.037,0.0374,0.0428,0.039,0.043,0.0417,0.0393,0.0467,0.0383,0.0334,0.0299,0.0356,0.0284,0.0284,0.0257,0.0255,0.0254,0.0253,0,0,0.0233,0.0306,0.0316,0.0388,0.0401,0.0444,0.0505,0.0576,0.0644,0.0595,0.0678,0.0698,0.0657,0.0673,0.0638,0.0612,0.0584,0.0491,0.0487,0.0438,0.0455,0.0413,0.0407,0.0497,0.0499,0.05,0.037,0,0.0306,0.0423,0.0436,0.057,0.0645,0.0649,0.0728,0.0777,0.0765,0.0808,0.0797,0.0824,0.0757,0.0752,0.073,0.0629,0.0593,0.0623,0.0405,0.04,0.0361,0.0412,0.0427,0.0314,0.0369,0.0369,0.0369,0,0.038,0.0465,0.0603,0.0766,0.08,0.086,0.0999,0.1051,0.1089,0.1071,0.1082,0.1022,0.1047,0.0919,0.0818,0.0815,0.0666,0.056,0.055,0.0498,0.0361,0.0273,0.0312,0.0368,0.0368,0.0369,0.0369,0,0.0454,0.0601,0.0735,0.0775,0.0915,0.1004,0.1073,0.1137,0.1203,0.1212,0.1219,0.1207,0.1176,0.1029,0.0831,0.0795,0.0651,0.057,0.0404,0.0396,0.0375,0.0364,0.0489,0.0489,0.0489,0.049,0.049,0,0.054,0.0659,0.0784,0.0854,0.1053,0.11,0.1256,0.1311,0.1355,0.1429,0.1349,0.137,0.1186,0.1074,0.0876,0.0659,0.0687,0.0462,0.0383,0.0401,0.0395,0.0424,0.0418,0.0485,0.0486,0.0487,0.0488,0,0.0609,0.0668,0.0851,0.1022,0.1086,0.1219,0.1367,0.1446,0.1475,0.1548,0.1551,0.1488,0.133,0.1135,0.0882,0.0723,0.0512,0.0415,0.0445,0.0374,0.026,0.0261,0.0229,0.0227,0.0225,0.0224,0.0223,0,0.0658,0.0754,0.0967,0.106,0.1138,0.1311,0.1406,0.1492,0.1548,0.1618,0.1648,0.1543,0.1456,0.1104,0.0809,0.0487,0.0452,0.0292,0.027,0.032,0.0245,0.0248,0.0251,0.0245,0.0244,0.0243,0.0242,0,0.0786,0.0848,0.0987,0.1154,0.1276,0.1442,0.1572,0.1636,0.1711,0.1765,0.1786,0.1727,0.1412,0.1104,0.07,0.0483,0.0356,0.0265,0.032,0.032,0.0328,0.0256,0.0259,0.0236,0.0236,0.0237,0.0237,0.0237,0.0873,0.0984,0.1118,0.1279,0.1402,0.1531,0.1633,0.1727,0.1835,0.1869,0.1842,0.1725,0.145,0.0892,0.0589,0.027,0.0272,0.0148,0.0154,0.0159,0.0197,0.0203,0.0091,0.0091,0.0091,0.0091,0.0091,0,0.0984,0.1079,0.1228,0.1392,0.1485,0.1558,0.1712,0.1757,0.1838,0.1856,0.1838,0.1521,0.1217,0.0889,0.0422,0.0156,0.0144,0.0057,0.0116,0.0124,0.0131,0.017,0.0055,0.0055,0.0054,0.0054,0,0,0.1042,0.1182,0.1243,0.1411,0.1503,0.1622,0.1693,0.1756,0.1791,0.1745,0.1672,0.1588,0.1254,0.0914,0.0572,0.0313,0.027,0.0247,0.03,0.0418,0.0428,0.0203,0.0274,0,0,0,0,0]}],[{"header":{"parameterUnit":"m.s-1","parameterCategory":2,"la1":30.2991,"la2":30.254,"lo1":-89.0895,"lo2":-89.0444,"dy":0.0017,"dx":0.0017,"nx":28,"ny":28,"refTime":"2023-06-21T21:00:00:Z","depth":"4","parameterNumber":2,"parameterNumberName":"U-component_of_CURRENTS"},"data":[0,0,0,0,0,0,0,0,0,0,0,0,0,0,0,0,0,0,0,0,0,0,0,0,0,0,0,0,0,0,0,0,0,0,0,0,0,0,0,0,0,0,0,0,0,0,0,0,0,0,0,0,0,0,0,0,0,0,0.143,0.143,0,0.1377,0.1376,0.1375,0.1405,0.1407,0.1409,0.1411,0.1453,0.1452,0.1451,0,0,0,0,0,0,0,0,0,0,0,0,0,0.1453,0.1453,0.143,0.143,0.1429,0.1377,0.1376,0.1375,0.1405,0.1407,0.1409,0.1412,0.1453,0.1452,0.1451,0,0,0,0,0,0,0,0,0,0,0,0,0,0.1422,0.1453,0.143,0.1441,0.1442,0.1377,0.1376,0.1375,0.1405,0.1407,0.141,0.1413,0.1453,0.1452,0.1451,0.1391,0,0,0.1449,0.1448,0,0,0,0,0,0,0,0,0.1424,0.1421,0.144,0.144,0.1441,0.1404,0.14,0.1386,0.1404,0.1415,0.1411,0.1414,0.1445,0.1445,0.1423,0.1393,0.1395,0.1449,0.1448,0.1448,0.1447,0,0,0,0,0,0,0,0.1426,0.1423,0.1405,0.1439,0.144,0.1413,0.1412,0.1396,0.1414,0.1414,0.1417,0.1416,0.1446,0.1423,0.1424,0.1396,0.1449,0.1448,0.1447,0.1447,0.1452,0.1453,0,0,0,0,0,0,0.1443,0.1425,0.1407,0.1404,0.1443,0.1411,0.141,0.141,0.1412,0.1416,0.1414,0.1418,0.1423,0.1425,0.1426,0.1452,0.1448,0.1447,0.1446,0.1451,0.1452,0.1453,0,0,0,0,0,0,0.1443,0.1441,0.1409,0.1416,0.1411,0.1409,0.1408,0.1407,0.142,0.1412,0.1417,0.1432,0.1426,0.1427,0.1427,0.1451,0.1446,0.1446,0.145,0.1451,0.1452,0.1442,0,0,0,0,0,0,0.1444,0.1442,0.1452,0.1418,0.1412,0.1373,0.1405,0.1405,0.1415,0.1421,0.1428,0.1433,0.1428,0.1428,0.1426,0.1449,0.1445,0.145,0.1451,0.1452,0.1441,0.1442,0.1443,0,0,0,0,0,0.1445,0.1438,0.1452,0.1451,0.1424,0.1372,0.1365,0.137,0.1414,0.1397,0.1415,0.1435,0.1436,0.1426,0.1424,0.1448,0.1449,0.1451,0.1452,0.1441,0.1442,0.1443,0,0,0,0,0,0,0.1463,0.144,0.1455,0.1447,0.1418,0.1379,0.1377,0.1384,0.1381,0.1414,0.1417,0.1419,0.1446,0.1438,0.1427,0.1457,0.1456,0.1457,0.1449,0.145,0.145,0.1575,0.1444,0,0,0,0,0,0.1469,0.1455,0.1431,0.1425,0.1422,0.1408,0.1398,0.14,0.1391,0.1395,0.1386,0.1407,0.1439,0.1438,0.1449,0.1433,0.1497,0.1458,0.1459,0.146,0.1561,0.1632,0.165,0.1458,0.1458,0.1458,0,0,0.1474,0.1462,0.1456,0.1427,0.1419,0.1388,0.1409,0.1399,0.14,0.14,0.1395,0.1412,0.1442,0.1444,0.1455,0.1442,0.1534,0.1462,0.1462,0.1566,0.1636,0.1655,0.1673,0.1459,0.1458,0.1458,0,0,0.1448,0.1473,0.1444,0.1406,0.1392,0.1395,0.1402,0.1367,0.1393,0.138,0.141,0.1463,0.143,0.1481,0.1507,0.1525,0.155,0.1494,0.158,0.1643,0.1661,0.1678,0.1726,0.1748,0.1476,0.1476,0.1476,0,0.146,0.1424,0.1425,0.1371,0.137,0.1404,0.1383,0.139,0.1355,0.1416,0.1391,0.1481,0.1485,0.1583,0.1589,0.154,0.1559,0.1561,0.1648,0.1666,0.1684,0.173,0.1754,0.1476,0.1476,0.1476,0.1476,0,0.1382,0.1364,0.1348,0.1314,0.1309,0.1295,0.1318,0.1343,0.1401,0.1432,0.1544,0.1551,0.1646,0.1612,0.161,0.1731,0.1696,0.1649,0.1649,0.1703,0.1747,0.1772,0.1475,0.1475,0.1475,0.1475,0,0,0.1397,0.1315,0.1317,0.1308,0.1291,0.1291,0.1339,0.1422,0.1526,0.1527,0.1658,0.1721,0.1796,0.1838,0.1829,0.1865,0.1966,0.1807,0.181,0.1866,0.2089,0.1873,0.1879,0.1897,0.1903,0.1907,0.2048,0,0.1357,0.1276,0.1259,0.1236,0.1217,0.1278,0.1334,0.1422,0.1524,0.1636,0.1759,0.1858,0.1857,0.1905,0.197,0.1972,0.2042,0.1934,0.2026,0.2032,0.1841,0.1906,0.1925,0.2067,0.2073,0.2077,0.208,0,0.1279,0.1259,0.1219,0.1253,0.1266,0.1286,0.1474,0.1517,0.1709,0.1799,0.1968,0.2029,0.2176,0.212,0.2273,0.2185,0.2202,0.2179,0.2182,0.2036,0.1866,0.2017,0.2127,0.2123,0.212,0.2117,0.2114,0,0.1282,0.1241,0.1243,0.1221,0.1257,0.134,0.143,0.1604,0.1709,0.1925,0.2016,0.2206,0.2307,0.2367,0.2368,0.2327,0.2466,0.2396,0.2242,0.2225,0.2383,0.2365,0.2557,0.2557,0.2557,0.2557,0.2556,0,0.121,0.1212,0.1261,0.124,0.1343,0.1384,0.155,0.1666,0.1864,0.1993,0.213,0.223,0.237,0.2435,0.2432,0.2413,0.2547,0.2331,0.2271,0.2361,0.234,0.2397,0.2377,0.2562,0.2561,0.256,0.2559,0,0.114,0.115,0.1149,0.1247,0.1313,0.1389,0.1588,0.1699,0.1892,0.2058,0.2121,0.2309,0.2391,0.246,0.2545,0.248,0.246,0.2419,0.2528,0.246,0.2175,0.2152,0.2316,0.231,0.2305,0.2301,0.2297,0,0.1084,0.107,0.116,0.1206,0.1254,0.14,0.1506,0.1709,0.1811,0.2057,0.2108,0.2271,0.2363,0.2341,0.2413,0.2424,0.2383,0.2373,0.231,0.2238,0.2163,0.2148,0.2133,0.2289,0.2288,0.2286,0.2285,0,0.1003,0.1039,0.1061,0.1156,0.1255,0.1327,0.1495,0.1572,0.1788,0.1963,0.206,0.2107,0.2206,0.2254,0.227,0.2258,0.2369,0.232,0.2331,0.2273,0.2207,0.2134,0.2125,0.2268,0.227,0.2272,0.2273,0,0.0988,0.0976,0.1029,0.1108,0.1197,0.1235,0.1329,0.1455,0.1581,0.186,0.1878,0.2027,0.2193,0.2166,0.2157,0.2146,0.2135,0.2057,0.2082,0.2102,0.1955,0.1835,0.1787,0,0,0,0,0,0.0962,0.0949,0.1,0.1044,0.1111,0.1165,0.131,0.1403,0.1619,0.1644,0.1775,0.1839,0.1893,0.1955,0.1906,0.2051,0.2123,0.1979,0.2041,0.2171,0.2191,0.2031,0,0,0,0,0,0,0.093,0.0968,0.0967,0.0982,0.1008,0.106,0.1134,0.1266,0.1297,0.1523,0.156,0.1717,0.1787,0.1915,0.1872,0.189,0.1885,0.208,0.2074,0.216,0.2178,0.2194,0.2037,0,0,0,0,0]},{"header":{"parameterUnit":"m.s-1","parameterCategory":2,"la1":30.2991,"la2":30.254,"lo1":-89.0895,"lo2":-89.0444,"dy":0.0017,"dx":0.0017,"nx":28,"ny":28,"refTime":"2023-06-21T21:00:00:Z","depth":"4","parameterNumber":3,"parameterNumberName":"V-component_of_CURRENTS"},"data":[0,0,0,0,0,0,0,0,0,0,0,0,0,0,0,0,0,0,0,0,0,0,0,0,0,0,0,0,0,0,0,0,0,0,0,0,0,0,0,0,0,0,0,0,0,0,0,0,0,0,0,0,0,0,0,0,0,0,0.0187,0.0187,0,0.0233,0.0234,0.0234,0.023,0.023,0.0229,0.0228,0.0238,0.0238,0.0239,0,0,0,0,0,0,0,0,0,0,0,0,0,0.0128,0.0128,0.0187,0.0187,0.0188,0.0233,0.0234,0.0234,0.023,0.023,0.0229,0.0228,0.0237,0.0238,0.0239,0,0,0,0,0,0,0,0,0,0,0,0,0,0.0161,0.0129,0.0187,0.0192,0.0193,0.0233,0.0234,0.0234,0.023,0.023,0.0229,0.0228,0.0237,0.0238,0.024,0.0266,0,0,0.0243,0.0244,0,0,0,0,0,0,0,0,0.0159,0.0163,0.0191,0.0192,0.0193,0.0226,0.0216,0.0244,0.0231,0.0215,0.0228,0.0227,0.0231,0.0233,0.0243,0.0267,0.0267,0.0243,0.0244,0.0245,0.0245,0,0,0,0,0,0,0,0.0157,0.0161,0.0204,0.0191,0.0193,0.0204,0.0207,0.0222,0.0227,0.0217,0.0217,0.0223,0.0231,0.0242,0.0243,0.0267,0.0243,0.0245,0.0245,0.0246,0.0307,0.0308,0,0,0,0,0,0,0.0152,0.0159,0.0203,0.0206,0.0174,0.0205,0.0209,0.0215,0.0228,0.0229,0.0224,0.0223,0.024,0.0242,0.0244,0.0275,0.0245,0.0246,0.0247,0.0306,0.0307,0.0308,0,0,0,0,0,0,0.0151,0.0155,0.0201,0.0184,0.019,0.0207,0.0215,0.0217,0.0232,0.0234,0.0234,0.0237,0.024,0.0242,0.0275,0.0275,0.0247,0.0248,0.0305,0.0307,0.0308,0.0338,0,0,0,0,0,0,0.0149,0.0155,0.016,0.0184,0.0191,0.0234,0.0216,0.0218,0.0238,0.0237,0.0245,0.0245,0.0239,0.0273,0.0276,0.0276,0.0249,0.0304,0.0306,0.0308,0.0336,0.034,0.0344,0,0,0,0,0,0.0146,0.0164,0.016,0.0166,0.0198,0.0235,0.0241,0.0248,0.0239,0.0256,0.0266,0.0245,0.0284,0.0276,0.0279,0.0279,0.0303,0.0305,0.0307,0.0334,0.0339,0.0344,0,0,0,0,0,0,0.014,0.0166,0.0162,0.0185,0.021,0.0235,0.0253,0.0256,0.0278,0.0277,0.0271,0.0273,0.0297,0.0292,0.0283,0.0302,0.0285,0.0287,0.0304,0.0309,0.0312,0.0302,0.025,0,0,0,0,0,0.0142,0.0163,0.0185,0.0205,0.0217,0.0235,0.0251,0.026,0.0281,0.0289,0.0299,0.0303,0.0308,0.0313,0.0324,0.0345,0.03,0.0343,0.0347,0.035,0.0344,0.0258,0.0252,0.0315,0.0315,0.0315,0,0,0.0144,0.0163,0.0173,0.0206,0.0223,0.0257,0.0243,0.0276,0.03,0.0288,0.0327,0.0326,0.032,0.0341,0.0349,0.0336,0.0317,0.0353,0.0355,0.0348,0.0259,0.0252,0.0246,0.0316,0.0316,0.0316,0,0,0.0174,0.0177,0.0208,0.0232,0.0266,0.028,0.0291,0.0324,0.0331,0.0375,0.0359,0.0357,0.0392,0.0369,0.0364,0.0396,0.0344,0.0405,0.0412,0.0328,0.0321,0.0314,0.0277,0.0267,0.0401,0.0401,0.0401,0,0.0172,0.0218,0.0224,0.0263,0.0286,0.0292,0.0331,0.0344,0.0386,0.0387,0.0394,0.0403,0.0396,0.0382,0.0395,0.0401,0.0363,0.0393,0.0329,0.0321,0.0314,0.0277,0.0265,0.0403,0.0402,0.0402,0.0402,0,0.0229,0.0264,0.0287,0.0333,0.0356,0.0396,0.041,0.0431,0.0442,0.0445,0.0449,0.0441,0.0439,0.043,0.0428,0.0377,0.0374,0.0345,0.031,0.0308,0.0272,0.0259,0.0405,0.0404,0.0404,0.0404,0,0,0.0235,0.0311,0.032,0.0351,0.0398,0.0423,0.0454,0.0476,0.0486,0.0498,0.0501,0.0489,0.0471,0.0463,0.0441,0.0365,0.0291,0.0341,0.0335,0.0293,0.0136,0.017,0.0159,0.0244,0.0242,0.024,0.0142,0,0.028,0.0362,0.0386,0.0456,0.05,0.0505,0.0536,0.0546,0.055,0.0556,0.0504,0.051,0.0486,0.0488,0.0409,0.0324,0.0254,0.0322,0.0154,0.015,0.0168,0.0143,0.0231,0.0132,0.0128,0.0126,0.0125,0,0.0337,0.0386,0.0466,0.0525,0.054,0.0584,0.0613,0.0639,0.0625,0.0628,0.0599,0.0563,0.0489,0.0461,0.029,0.0338,0.0246,0.0164,0.0157,0.0164,0.0158,0.0127,0.01,0.0102,0.0104,0.0106,0.0107,0,0.0359,0.044,0.0505,0.0529,0.0595,0.0628,0.0662,0.067,0.0695,0.0674,0.068,0.0583,0.0561,0.0402,0.0265,0.0268,0.0063,0.0042,-0.0016,-0.0013,-0.0029,-0.0021,-0.0103,-0.0103,-0.0102,-0.0102,-0.0102,0,0.0412,0.0465,0.053,0.0572,0.0645,0.0672,0.0739,0.0753,0.0776,0.0801,0.0729,0.0713,0.0539,0.0413,0.0263,0.0099,0.0061,-0.0021,-0.005,-0.0005,0.0006,-0.0036,-0.0027,-0.0106,-0.0105,-0.0104,-0.0104,0,0.0444,0.049,0.0558,0.063,0.0673,0.072,0.0823,0.0861,0.0875,0.0905,0.0902,0.0811,0.0656,0.0475,0.0232,0.0128,-0.0061,-0.0111,-0.0017,-0.0037,-0.0077,-0.0065,-0.0192,-0.0192,-0.0192,-0.0192,-0.0192,0,0.0464,0.0513,0.0599,0.0653,0.0705,0.0795,0.0871,0.0924,0.0965,0.0955,0.0964,0.0845,0.076,0.0456,0.0258,-0.0016,-0.0055,-0.0141,-0.0145,-0.0078,-0.0094,-0.0081,-0.007,-0.0192,-0.0192,-0.0192,-0.0192,0,0.0492,0.0523,0.0579,0.0697,0.0789,0.0875,0.0983,0.1024,0.1065,0.1071,0.101,0.0861,0.0705,0.0471,0.028,0.007,-0.0089,-0.0142,-0.0143,-0.0147,-0.0079,-0.0092,-0.008,-0.0191,-0.0192,-0.0192,-0.0192,0,0.0503,0.0537,0.0621,0.0728,0.0827,0.0924,0.0983,0.104,0.1084,0.1077,0.105,0.0874,0.0782,0.0515,0.0316,0.0141,0.0089,0.0015,0.0004,0.0001,0.0087,0.0204,0.0144,0,0,0,0,0,0.051,0.0574,0.0658,0.0764,0.0854,0.0928,0.1038,0.1084,0.1126,0.1096,0.1082,0.0929,0.0665,0.054,0.037,0.0306,0.0053,0.01,-0.0039,-0.019,-0.019,-0.0121,0,0,0,0,0,0,0.0519,0.0603,0.0654,0.0771,0.085,0.0963,0.1033,0.1074,0.1057,0.1066,0.0926,0.0874,0.0615,0.0758,0.036,0.0308,0.0194,-0.0018,-0.0022,-0.019,-0.019,-0.0191,-0.0119,0,0,0,0,0]}]]